Wilmington, NC

11:53 PM EDT on March 26, 2017 (GMT -0400)
Wilmington International

Weather History for KILM - June, 2014

Change the Weather History Date:

Sunday, June 22, 2014

  Actual Average Record
Temperature  
Mean Temperature 82 °F 79 °F  
Max Temperature 90 °F 88 °F 98 °F (1994)
Min Temperature 73 °F 70 °F 59 °F (1947)
Degree Days  
Heating Degree Days 0 0  
Month to date heating degree days 0 0  
Since 1 June heating degree days 0 0  
Since 1 July heating degree days 2432 2409  
Cooling Degree Days 17 14  
Month to date cooling degree days 317 266  
Year to date cooling degree days 724 547  
Since 1 June cooling degree days 317 266  
Growing Degree Days 32 (Base 50)    
Moisture  
Dew Point 72 °F    
Average Humidity 76    
Maximum Humidity 93    
Minimum Humidity 59    
Precipitation  
Precipitation 0.00 in 0.18 in 2.73 in (2008)
Month to date precipitation 1.62 3.70  
Year to date precipitation 20.86 22.60  
Sea Level Pressure  
Sea Level Pressure 29.86 in    
Wind  
Wind Speed 6 mph (North)    
Max Wind Speed 15 mph    
Max Gust Speed 20 mph    
Visibility 10 miles    
Events      
T = Trace of Precipitation, MM = Missing Value Source: NWS Daily Summary

Daily Weather History Graph

Daily Weather History Graph

Search for Another Location

Airport or City:

Trip Planner

Search our weather history database for the weather conditions in past years. The results will help you decide how hot, cold, wet, or windy it might be!

Date:

Astronomy

Jun. 22, 2014 Rise Set
Actual Time 6:00 AM EDT 8:27 PM EDT
Civil Twilight 5:30 AM EDT 8:56 PM EDT
Nautical Twilight 4:54 AM EDT 9:32 PM EDT
Astronomical Twilight 4:14 AM EDT 10:12 PM EDT
Moon 2:37 AM EDT (6/22) 4:13 PM EDT (6/22)
Length of Visible Light 15h 25m
Length of Day
14h 26m
Waning Crescent, 21% of the Moon is Illuminated
Jun 22
Waning Crescent
Jun 27
New
Jul 5
First Quarter
Jul 12
Full
Jul 18
Last Quarter

Hourly Weather History & Observations

Time (EDT) Temp. Heat Index Dew Point Humidity Pressure Visibility Wind Dir Wind Speed Gust Speed Precip Events Conditions
12:53 AM 75.2 °F - 71.6 °F 89% 29.83 in 10.0 mi East 3.5 mph - N/A   Clear
1:53 AM 75.0 °F - 72.0 °F 90% 29.81 in 10.0 mi Calm Calm - N/A   Clear
2:53 AM 75.9 °F - 72.0 °F 87% 29.81 in 10.0 mi Calm Calm - N/A   Clear
3:53 AM 75.0 °F - 72.0 °F 90% 29.80 in 10.0 mi NNW 3.5 mph - N/A   Clear
4:11 AM 75.0 °F - 72.0 °F 90% 29.80 in 10.0 mi NNW 8.1 mph - N/A   Mostly Cloudy
4:38 AM 73.9 °F - 71.1 °F 91% 29.80 in 10.0 mi North 3.5 mph - N/A   Overcast
4:53 AM 73.9 °F - 71.1 °F 91% 29.81 in 10.0 mi Calm Calm - N/A   Overcast
5:53 AM 73.0 °F - 71.1 °F 93% 29.81 in 10.0 mi WNW 4.6 mph - N/A   Partly Cloudy
6:13 AM 73.0 °F - 71.1 °F 93% 29.81 in 9.0 mi WNW 3.5 mph - N/A   Mostly Cloudy
6:25 AM 73.0 °F - 71.1 °F 93% 29.82 in 9.0 mi WNW 3.5 mph - N/A   Mostly Cloudy
6:42 AM 73.0 °F - 71.1 °F 93% 29.82 in 9.0 mi NNW 5.8 mph - N/A   Overcast
6:53 AM 73.0 °F - 71.1 °F 93% 29.82 in 9.0 mi North 3.5 mph - N/A   Mostly Cloudy
7:29 AM 73.0 °F - 71.1 °F 93% 29.83 in 7.0 mi NNW 4.6 mph - N/A   Mostly Cloudy
7:38 AM 73.0 °F - 71.1 °F 93% 29.84 in 6.0 mi North 4.6 mph - N/A   Mostly Cloudy
7:53 AM 73.9 °F - 72.0 °F 93% 29.85 in 5.0 mi NNW 4.6 mph - N/A   Overcast
8:28 AM 75.0 °F - 71.1 °F 87% 29.85 in 8.0 mi North 6.9 mph - N/A   Overcast
8:53 AM 75.9 °F - 72.0 °F 87% 29.87 in 10.0 mi North 4.6 mph - N/A   Overcast
9:12 AM 77.0 °F - 72.0 °F 84% 29.87 in 10.0 mi North 6.9 mph - N/A   Mostly Cloudy
9:53 AM 79.0 °F - 72.0 °F 79% 29.88 in 10.0 mi North 5.8 mph - N/A   Mostly Cloudy
10:02 AM 79.0 °F - 72.0 °F 79% 29.88 in 10.0 mi North 6.9 mph - N/A   Mostly Cloudy
10:53 AM 81.0 °F 85.2 °F 72.0 °F 74% 29.88 in 10.0 mi North 8.1 mph - N/A   Mostly Cloudy
11:10 AM 82.9 °F 88.0 °F 72.0 °F 69% 29.88 in 10.0 mi Variable 4.6 mph - N/A   Scattered Clouds
11:53 AM 84.0 °F 89.6 °F 72.0 °F 67% 29.88 in 10.0 mi WNW 4.6 mph - N/A   Mostly Cloudy
12:09 PM 84.9 °F 90.7 °F 72.0 °F 65% 29.87 in 10.0 mi NW 5.8 mph - N/A   Scattered Clouds
12:49 PM 84.2 °F 89.6 °F 71.6 °F 66% 29.86 in 10.0 mi NNW 6.9 mph - N/A   Mostly Cloudy
12:53 PM 84.9 °F 90.7 °F 72.0 °F 65% 29.86 in 10.0 mi NNW 9.2 mph - N/A   Mostly Cloudy
1:19 PM 86.0 °F 92.2 °F 72.0 °F 63% 29.86 in 10.0 mi NW 10.4 mph - N/A   Mostly Cloudy
1:53 PM 86.0 °F 92.2 °F 72.0 °F 63% 29.86 in 10.0 mi NW 6.9 mph - N/A   Mostly Cloudy
2:07 PM 84.9 °F 90.7 °F 72.0 °F 65% 29.85 in 10.0 mi North 6.9 mph - N/A   Mostly Cloudy
2:21 PM 87.1 °F 93.6 °F 72.0 °F 61% 29.86 in 10.0 mi North 9.2 mph - N/A   Mostly Cloudy
2:53 PM 87.1 °F 92.8 °F 71.1 °F 59% 29.86 in 10.0 mi North 10.4 mph - N/A   Scattered Clouds
3:53 PM 87.1 °F 92.8 °F 71.1 °F 59% 29.86 in 10.0 mi North 8.1 mph - N/A   Partly Cloudy
4:53 PM 88.0 °F 93.8 °F 71.1 °F 57% 29.83 in 10.0 mi North 9.2 mph - N/A   Clear
5:53 PM 88.0 °F 93.8 °F 71.1 °F 57% 29.83 in 10.0 mi NNE 3.5 mph - N/A   Scattered Clouds
6:53 PM 82.9 °F 87.0 °F 70.0 °F 65% 29.87 in 10.0 mi East 9.2 mph - N/A   Mostly Cloudy
7:53 PM 81.0 °F 85.2 °F 72.0 °F 74% 29.87 in 10.0 mi East 5.8 mph - N/A   Partly Cloudy
8:53 PM 80.1 °F 83.8 °F 72.0 °F 76% 29.89 in 10.0 mi East 3.5 mph - N/A   Mostly Cloudy
9:53 PM 80.1 °F 84.2 °F 73.0 °F 79% 29.92 in 10.0 mi ENE 5.8 mph - N/A   Scattered Clouds
10:39 PM 79.0 °F - 73.0 °F 82% 29.93 in 10.0 mi NE 10.4 mph - N/A   Mostly Cloudy
10:53 PM 78.1 °F - 72.0 °F 81% 29.94 in 10.0 mi ENE 10.4 mph - N/A   Overcast
11:49 PM 75.2 °F - 71.6 °F 89% 29.94 in 10.0 mi NNE 9.2 mph - 0.01 in   Mostly Cloudy
11:53 PM 75.9 °F - 71.1 °F 85% 29.94 in 10.0 mi NE 8.1 mph - 0.01 in   Scattered Clouds